Theta_e
302 302 302 302 301 301 302 301 303 302 304 300 298 301 294 294 292 301 306 308 302 295 289 291 289 289 291 294 294 295 295 294 296 295 297 295 297 296 294 294 294 296 295 296 294 295 292 293 293 295 296 297 299 301 301 302 300 299 298 299 300 304 292 290 292 296 298 299 301 301 301 301 298 298 299 298 294 295 293 293 296 291 292 290 290 287 295
302 302 302 302 302 302 302 302 302 302 301 300 300 296 293 293 292 295 305 308 302 293 284 284 286 290 292 293 293 296 294 294 294 294 296 295 294 293 294 295 297 295 298 297 294 297 289 294 294 293 297 296 301 302 301 302 299 298 297 295 301 292 295 293 289 288 290 293 296 296 299 299 296 296 298 298 298 298 298 298 303 290 293 293 290 287 292
302 302 302 302 302 302 302 301 302 301 302 302 299 293 296 293 299 298 301 305 301 290 292 290 288 289 289 291 290 292 293 295 295 295 294 297 296 295 294 295 298 296 299 297 297 298 294 293 296 297 297 298 301 302 302 302 300 301 303 309 302 295 294 292 286 283 281 281 282 285 289 292 295 298 297 298 298 298 296 290 292 288 294 293 290 291 299
302 302 302 302 302 301 301 302 302 301 301 303 300 297 293 291 284 291 296 298 297 295 298 296 292 291 290 288 291 292 291 295 297 297 295 297 297 296 296 297 298 296 296 294 294 294 297 294 294 295 295 298 299 302 302 301 301 305 312 307 301 296 298 295 293 290 288 290 293 297 297 295 291 295 296 297 298 298 298 297 291 289 293 291 295 297 297
302 301 301 301 301 301 301 301 302 302 302 303 300 298 295 294 287 289 287 294 294 293 294 293 294 289 294 287 291 290 291 294 295 298 293 296 295 296 295 296 294 295 295 294 294 295 295 297 295 295 298 299 300 302 302 302 303 313 305 307 300 297 292 295 296 295 295 296 296 299 297 294 294 294 295 297 296 297 297 292 291 297 293 289 299 301 298
301 301 301 302 303 303 302 303 302 302 303 303 301 294 297 288 292 295 296 290 287 288 289 294 293 294 294 291 294 291 291 292 290 295 295 297 298 292 294 295 296 296 295 296 291 295 295 296 292 297 298 297 300 300 302 301 307 304 301 303 300 296 290 296 296 295 297 297 297 299 298 298 296 295 296 295 296 297 294 298 298 300 291 289 300 302 301
301 301 301 302 302 303 303 303 303 303 303 303 299 292 297 295 294 296 301 291 293 291 293 294 293 293 294 293 293 291 291 291 293 293 293 294 295 296 289 294 296 297 298 296 293 295 290 289 297 295 296 297 298 297 298 300 306 301 300 300 303 298 292 298 297 296 297 297 298 299 296 297 297 295 295 297 298 297 297 298 300 300 300 304 303 304 303
301 302 302 303 303 303 303 303 303 304 303 303 297 296 290 291 291 291 298 297 294 296 294 294 293 291 294 289 292 292 292 292 293 295 294 291 294 298 294 295 297 298 298 297 295 296 297 297 293 297 298 299 300 297 298 297 302 301 299 300 302 297 292 298 298 293 295 298 299 299 299 297 296 298 297 297 298 298 297 300 303 304 304 304 303 301 299
302 302 302 302 303 303 303 303 304 303 303 298 297 297 300 298 300 299 292 290 294 295 295 293 292 291 293 290 293 293 294 293 295 294 297 295 294 296 295 297 298 299 298 298 297 300 300 299 300 300 300 294 300 297 299 301 298 299 298 300 301 299 294 300 298 291 291 296 297 298 298 298 297 298 297 297 297 297 302 299 305 303 300 302 301 297 297
302 302 302 302 302 303 303 303 303 303 304 299 299 295 304 302 307 303 297 289 293 292 296 295 293 288 294 294 294 293 294 296 297 292 299 300 299 299 298 299 297 297 297 296 299 302 303 303 303 305 305 306 303 303 303 302 301 299 298 302 297 297 296 292 292 288 288 296 298 297 296 293 292 293 298 301 303 304 306 305 307 306 306 299 294 298 302
302 302 302 302 303 303 303 303 303 304 303 300 298 298 301 298 297 299 299 289 291 294 293 293 292 295 296 296 294 296 297 297 299 292 292 298 299 301 300 299 297 296 297 300 306 308 307 307 307 308 307 304 302 303 304 304 303 302 299 299 299 299 298 293 297 288 289 294 296 297 291 284 287 300 300 304 304 304 301 300 303 306 307 304 305 304 304
302 302 302 302 302 303 303 303 303 303 303 303 303 300 303 303 302 301 294 288 289 296 293 290 293 296 294 297 296 295 296 295 297 300 296 300 300 300 300 299 299 292 303 311 309 308 308 308 307 305 305 306 304 302 302 303 303 304 304 300 298 297 296 294 297 291 288 293 294 288 283 285 296 301 302 307 307 306 303 303 303 303 304 304 303 302 302
301 301 302 302 302 302 303 303 303 303 304 305 304 300 305 306 301 297 296 293 288 293 290 293 297 296 297 297 296 298 298 299 300 301 300 298 297 299 300 299 299 301 308 307 307 306 302 299 302 302 301 301 302 302 302 301 301 304 303 303 300 294 294 294 291 292 292 290 289 282 283 294 300 300 301 307 307 305 302 299 302 303 303 303 301 302 303
301 301 301 302 302 302 302 303 303 303 304 304 303 303 305 305 299 298 296 290 288 294 296 295 295 294 296 295 296 297 299 298 300 300 298 300 298 298 301 303 305 308 307 308 306 303 298 299 293 295 296 298 297 295 298 300 302 303 300 301 302 299 297 293 290 294 286 289 288 286 291 295 297 296 298 302 300 301 298 291 296 302 303 303 301 300 300
300 301 301 302 302 302 302 303 303 303 304 304 304 304 305 305 303 300 299 296 288 292 297 288 294 295 297 297 296 296 295 297 296 296 299 300 299 301 303 306 309 307 306 305 301 301 295 292 288 287 289 288 284 287 297 294 300 304 304 305 301 302 294 296 291 289 291 288 285 285 286 284 290 299 303 308 307 307 304 298 294 302 303 303 300 298 298
301 301 301 301 301 302 302 302 303 303 303 304 305 305 305 307 306 304 300 296 292 287 292 297 297 297 296 298 298 295 292 292 295 297 296 297 298 303 306 307 307 307 305 301 300 295 291 288 286 286 285 286 291 290 287 294 293 299 303 304 303 304 303 300 292 290 289 288 285 284 283 286 295 299 303 307 308 307 305 298 291 299 300 300 299 297 298
301 301 301 301 301 302 302 302 302 303 303 303 302 303 304 308 305 303 299 298 296 290 299 300 301 301 298 299 298 295 297 294 297 291 290 293 297 299 301 305 308 304 302 300 299 293 291 289 292 289 292 295 289 287 294 292 290 292 298 299 299 299 295 295 291 288 288 287 286 284 287 287 296 302 304 305 307 307 304 287 288 298 301 300 299 297 297
301 301 300 301 301 301 301 302 302 302 302 304 304 303 303 308 308 306 301 298 294 295 300 302 300 297 297 298 296 300 303 301 299 299 295 297 298 297 298 299 298 302 305 295 296 291 290 290 288 287 287 295 296 295 286 292 289 288 291 293 293 292 292 293 289 290 289 287 287 288 290 296 302 302 304 304 306 303 290 286 293 300 301 301 300 298 298
301 301 301 301 301 301 301 302 302 302 303 303 304 304 305 308 309 307 302 298 297 292 301 304 304 302 303 305 303 302 302 301 300 294 293 293 296 300 300 300 302 293 298 294 296 291 290 290 295 293 289 291 296 289 294 290 289 295 295 291 292 290 290 292 291 289 288 289 287 288 290 296 301 303 304 307 300 289 289 298 304 302 301 302 300 298 299
301 301 301 301 301 301 302 302 302 302 303 303 303 300 302 307 309 309 302 297 298 297 301 302 301 300 304 301 299 298 299 302 300 298 296 291 300 300 297 292 298 300 296 300 290 295 291 287 291 294 290 290 293 298 292 293 298 294 293 296 291 291 289 288 289 290 290 290 287 286 282 292 303 303 302 304 293 293 302 303 304 304 301 300 300 299 300
301 301 301 301 301 302 302 302 302 302 303 303 303 300 300 308 310 310 308 302 298 293 298 305 304 303 304 302 304 302 301 298 299 297 304 301 303 300 288 288 294 296 290 292 288 290 291 289 292 291 295 293 295 296 289 290 295 299 298 296 295 297 289 288 288 292 286 286 286 285 292 298 303 302 294 301 303 305 305 303 300 302 301 300 300 300 298
301 301 301 301 302 302 302 303 303 303 304 304 303 302 300 306 310 310 308 306 299 295 299 306 306 305 308 308 307 307 305 303 306 307 303 298 303 300 299 299 299 300 300 300 297 294 297 296 298 292 291 294 296 291 295 289 287 295 302 299 288 298 295 295 287 291 290 288 290 296 301 302 304 305 304 305 306 306 304 303 302 300 300 301 299 298 298
301 301 301 301 302 302 303 303 303 304 304 304 303 302 300 303 305 310 307 301 303 303 304 303 307 309 310 310 309 309 309 310 311 311 308 302 298 302 301 303 300 304 305 303 297 297 297 296 291 297 294 295 292 292 295 293 290 295 291 299 298 301 299 299 294 291 296 298 298 300 300 302 302 305 306 304 304 305 305 303 300 301 301 301 298 298 298
301 301 301 301 302 302 303 303 304 304 304 304 303 301 301 304 306 306 304 301 298 294 300 305 304 296 301 302 306 309 309 309 310 311 316 313 299 298 303 303 306 306 303 304 306 299 297 295 297 299 292 297 299 292 290 289 290 297 295 295 299 302 302 301 293 296 293 286 297 297 298 301 302 303 304 305 305 304 304 302 302 300 301 300 300 299 300
301 301 301 301 302 302 303 303 304 304 304 304 304 304 304 303 305 304 300 294 296 296 291 294 297 302 306 308 308 307 308 310 312 312 310 311 306 302 300 304 310 305 302 304 308 303 299 293 296 295 290 299 298 291 298 293 293 299 292 294 296 296 305 298 297 296 292 290 295 298 300 302 303 303 302 302 303 303 304 303 303 302 301 301 300 299 298
301 301 301 301 302 302 303 303 303 304 304 304 304 302 302 303 307 308 304 303 302 301 294 292 298 305 306 305 303 306 309 310 309 310 309 308 308 306 306 307 309 308 306 306 306 300 297 295 296 296 295 294 303 295 294 298 297 301 296 294 299 300 303 293 296 291 294 296 298 298 300 300 301 303 303 303 303 302 302 302 301 301 299 298 299 299 298
301 301 301 301 302 302 303 303 304 304 304 304 304 305 305 306 309 308 306 307 302 296 298 292 297 301 303 302 306 308 309 309 310 309 308 308 309 309 308 306 305 305 305 304 303 297 297 296 296 296 300 296 302 300 300 298 298 294 294 299 303 300 294 297 294 289 289 289 292 297 291 291 297 300 302 302 302 302 300 301 300 299 298 298 298 298 299
301 301 301 302 302 303 303 304 304 304 304 305 305 306 308 309 311 313 313 311 305 297 296 297 296 300 304 300 305 307 308 308 308 308 308 308 308 308 308 305 304 304 303 298 293 293 297 294 294 295 295 301 299 295 303 301 300 296 296 297 300 297 299 297 293 291 290 296 298 301 300 299 299 300 302 302 303 302 300 299 299 299 299 299 298 297 297
301 301 301 302 302 303 303 304 304 304 304 304 307 308 310 313 314 314 315 316 312 306 303 301 301 300 294 298 306 305 307 309 309 307 307 307 307 308 306 305 305 305 303 300 297 297 296 296 296 298 298 303 301 295 297 291 291 289 294 299 301 302 303 302 300 300 300 300 301 302 300 297 299 301 302 302 303 302 301 301 301 301 300 300 299 298 297
301 301 302 302 303 303 303 304 304 304 305 306 308 308 304 306 315 315 316 314 313 310 300 296 291 292 303 302 301 304 305 307 307 307 306 305 306 306 305 305 304 305 304 298 297 294 295 295 295 303 304 306 298 295 292 293 291 293 298 300 301 302 302 303 304 301 298 303 304 303 302 301 302 302 302 303 303 302 300 300 301 301 301 301 300 299 300
301 302 302 302 303 303 304 304 304 305 304 308 311 299 297 293 305 315 313 315 315 309 302 302 292 297 296 302 302 301 303 304 305 305 305 306 305 305 306 307 305 304 297 298 297 297 297 294 294 296 301 301 297 294 293 292 290 292 297 299 299 300 300 301 303 303 302 302 303 303 302 301 302 302 301 302 302 302 301 301 301 301 300 300 300 300 299
301 302 302 302 303 303 304 304 304 305 307 308 307 305 303 305 310 308 310 311 313 309 301 295 292 293 293 296 301 304 304 304 303 305 304 306 304 305 305 304 299 304 299 296 296 296 295 296 294 298 299 300 298 295 296 292 289 290 297 297 298 299 301 300 300 302 303 303 301 299 298 299 301 299 298 301 301 302 301 300 300 300 299 300 300 300 299
301 302 302 303 303 304 304 305 305 304 306 308 307 305 304 303 302 306 310 316 313 307 309 296 289 291 291 296 302 302 301 303 303 304 300 306 302 304 301 305 304 303 304 299 295 292 298 294 295 294 298 303 293 293 294 290 292 296 297 297 298 298 298 300 300 301 301 302 301 296 295 296 298 300 301 301 301 300 300 299 300 300 299 298 298 298 298
302 302 302 303 303 304 305 305 305 304 304 306 305 309 314 305 309 305 314 316 311 309 302 293 289 290 290 301 296 299 303 298 298 301 294 302 304 303 297 301 301 295 299 297 296 297 297 295 294 293 297 294 296 292 287 291 296 296 297 297 298 298 298 298 299 298 299 300 301 300 300 300 301 301 300 299 299 300 300 299 299 298 297 297 297 297 297
302 302 302 303 304 305 304 304 311 310 308 308 308 313 312 303 305 309 309 309 299 294 293 293 294 290 290 290 289 294 302 299 295 298 294 298 305 300 300 295 295 293 292 303 295 295 293 294 299 292 290 295 291 288 289 292 294 295 296 296 297 298 297 296 297 299 299 299 299 299 300 300 299 297 297 297 298 298 298 298 298 297 296 296 297 297 297
302 302 303 304 304 305 310 312 311 308 306 306 307 309 305 306 308 315 314 317 306 298 294 291 293 291 292 287 286 290 300 297 300 300 297 296 297 301 300 295 291 294 302 296 292 296 291 299 296 289 293 289 286 290 291 295 294 295 295 295 297 297 297 297 296 297 298 298 298 298 298 298 297 297 297 297 297 298 298 297 297 297 296 296 296 296 297
302 303 304 305 310 311 304 301 309 308 306 308 307 306 305 308 312 313 313 313 314 311 299 293 293 293 295 290 292 293 299 290 298 295 295 292 290 294 296 293 290 292 293 292 293 292 295 302 293 288 288 287 288 294 295 296 295 295 295 297 298 298 298 298 298 298 297 297 297 296 296 296 296 296 296 296 296 297 296 295 296 296 295 295 295 295 296
303 303 308 305 304 296 297 300 308 314 306 305 306 308 307 303 296 298 299 298 304 306 298 299 292 296 299 296 289 298 299 293 299 291 291 294 291 290 293 292 291 292 288 290 293 299 294 292 290 288 287 292 294 295 295 296 297 298 297 298 298 299 299 299 298 297 295 294 294 294 294 294 294 295 294 294 295 295 295 297 297 297 297 296 296 297 296
304 308 306 305 302 296 297 306 315 307 310 308 307 299 296 298 295 291 292 295 294 292 296 296 293 298 297 293 294 301 299 293 294 295 289 295 291 287 291 287 288 291 288 288 291 300 289 288 289 288 286 289 291 293 295 296 296 297 298 299 299 299 299 298 299 297 295 295 295 296 295 294 293 293 295 295 295 296 297 297 297 297 297 296 297 297 296
307 302 298 298 297 301 310 311 309 309 307 299 299 296 291 295 290 289 294 290 291 293 294 291 299 299 300 296 294 294 303 298 290 290 290 292 298 289 290 290 291 289 284 286 288 298 289 286 289 288 286 289 290 294 295 295 295 297 298 298 299 299 299 299 299 300 299 298 298 298 298 298 297 296 295 295 295 294 295 296 296 297 297 296 297 297 296
300 300 302 296 302 305 307 308 310 307 299 294 294 293 291 289 292 293 291 289 289 290 297 298 298 297 298 300 299 293 300 305 302 299 294 288 296 296 289 286 291 287 285 285 290 292 290 289 288 287 287 291 292 294 295 295 295 296 298 299 299 299 299 299 299 299 298 297 297 297 297 297 296 296 296 296 295 295 296 296 294 295 295 295 294 296 296
297 296 298 300 301 303 306 307 302 296 295 296 290 287 289 289 293 292 292 287 288 292 295 297 292 296 295 299 297 298 296 302 300 294 293 287 291 289 286 289 290 286 283 290 293 292 290 285 286 286 290 293 294 295 295 294 295 296 297 298 298 299 299 299 298 298 299 298 298 297 297 297 295 295 296 295 294 294 294 293 293 294 294 296 297 297 296
301 302 302 301 303 301 302 294 295 294 288 287 286 285 288 286 288 287 288 292 298 295 295 303 301 301 301 302 298 300 296 301 295 293 291 288 292 292 288 286 286 283 286 293 289 286 285 285 285 288 292 293 294 294 295 295 296 297 297 298 299 299 299 299 298 297 298 298 297 297 296 295 294 294 294 294 294 293 294 294 294 295 295 296 296 296 296
303 305 301 298 295 294 295 286 295 291 288 289 286 282 285 284 287 289 287 290 294 293 298 294 297 297 290 297 296 292 293 297 295 293 291 292 290 286 286 284 285 289 294 289 287 283 285 288 290 291 293 294 295 295 295 296 296 296 297 298 298 298 298 298 298 297 297 297 297 296 295 295 294 295 295 295 295 294 294 295 296 296 297 298 296 296 296
297 295 295 293 289 292 289 283 293 289 284 286 288 287 287 285 287 289 289 294 296 294 298 298 298 296 293 298 297 296 294 291 293 291 286 290 287 288 286 285 289 290 287 284 286 286 286 286 292 294 293 293 294 296 296 297 297 296 296 296 297 297 297 297 296 296 296 296 296 296 295 296 296 297 296 296 297 297 296 295 297 297 297 297 296 296 296
293 293 292 286 282 288 289 286 288 285 289 291 289 292 292 292 293 293 298 299 296 298 296 297 297 298 295 296 292 291 293 293 290 289 291 291 286 284 289 293 291 286 285 285 283 282 284 288 292 293 295 295 295 296 297 297 297 297 297 295 296 297 297 297 296 296 297 296 296 296 296 296 297 295 295 296 296 297 296 297 298 297 297 296 296 296 296
294 294 294 290 286 289 291 285 287 290 292 293 295 295 295 296 297 297 300 299 297 300 299 300 299 299 295 292 292 292 293 294 289 290 292 286 285 287 291 287 283 284 281 281 283 285 287 292 294 295 296 296 296 296 297 297 297 297 297 296 296 297 297 297 297 296 297 297 297 296 296 296 296 296 296 296 296 297 297 297 298 297 297 296 296 296 294
289 293 293 285 284 288 286 288 294 295 296 296 296 298 298 299 297 297 299 300 301 301 299 298 295 297 295 298 297 291 292 292 288 288 291 288 289 286 285 284 283 285 286 284 285 289 292 294 295 296 297 297 297 296 296 297 297 297 297 297 297 297 297 297 297 297 297 297 296 296 296 296 296 296 296 296 296 297 297 297 297 297 297 296 295 294 293
294 291 288 288 290 290 290 293 293 290 294 296 296 297 297 296 295 297 301 301 300 299 301 297 295 295 291 293 291 291 288 291 285 286 289 287 284 280 282 281 282 282 286 289 291 293 294 296 297 298 297 297 297 297 297 297 297 297 297 297 297 297 297 297 297 298 298 297 297 297 296 297 297 296 296 297 296 295 297 297 297 296 296 295 295 294 293
290 290 291 290 289 290 293 294 292 290 293 294 295 295 297 296 296 298 303 300 301 300 300 297 298 293 292 290 287 289 288 291 289 289 286 284 284 285 285 282 284 284 287 291 293 295 297 298 298 297 297 297 297 297 297 298 296 298 298 299 299 298 298 298 296 296 297 297 297 297 299 297 296 296 296 296 296 297 297 296 296 295 295 295 294 294 294
292 291 292 296 290 289 291 287 288 288 290 292 294 295 296 295 297 298 302 302 300 298 295 292 292 291 290 288 287 284 286 292 289 286 286 285 288 286 284 283 285 289 294 296 298 298 298 298 298 297 297 297 297 298 298 298 298 298 299 299 299 299 298 298 297 297 298 298 298 293 296 296 297 297 297 298 297 297 296 295 294 295 295 295 295 294 295
289 287 288 292 295 295 294 294 294 294 294 295 295 297 298 296 298 300 303 300 299 294 292 294 292 289 287 285 287 290 292 289 286 287 285 288 290 287 286 288 292 294 296 296 297 298 298 299 299 298 298 297 298 298 299 299 298 299 299 299 299 299 298 298 298 298 297 297 298 297 298 298 298 299 299 298 296 296 295 294 294 294 295 295 295 296 297
Wind_Speed
13 12 11 9 6 4 2 2 2 4 3 5 3 4 4 7 3 4 7 11 14 11 8 7 8 10 10 11 13 11 10 11 12 12 7 8 6 5 6 3 8 10 10 9 9 9 11 14 13 12 13 12 13 11 20 18 18 17 12 17 11 8 3 6 9 11 14 17 16 18 19 19 18 17 17 15 15 16 13 10 4 5 6 8 5 2 3
12 12 10 8 5 3 1 1 1 1 2 5 7 7 5 2 2 2 5 10 11 9 8 8 8 9 11 13 12 10 8 9 9 11 9 7 8 7 2 2 6 8 4 5 9 7 4 15 14 12 12 9 13 11 20 18 13 14 10 9 13 6 7 9 8 8 10 11 13 15 17 17 13 14 16 18 17 20 16 11 2 4 8 10 7 3 2
9 8 7 6 5 4 3 2 2 2 3 4 6 4 2 2 3 3 7 8 9 11 8 7 2 6 10 12 11 8 6 7 12 13 12 5 4 3 1 5 5 6 5 7 7 10 7 6 13 13 12 6 10 13 16 20 12 14 12 8 14 7 8 9 10 12 12 10 13 15 15 18 14 15 19 21 22 17 10 9 7 7 6 13 1 5 8
10 10 10 9 7 6 5 4 4 4 5 9 6 5 4 2 2 4 5 7 8 10 9 8 7 8 8 9 9 7 8 8 11 15 13 11 2 4 4 4 6 6 7 6 8 9 8 8 5 12 10 8 6 10 12 9 13 18 11 12 11 4 8 10 10 11 11 11 11 11 12 12 15 17 21 20 20 19 14 6 7 7 5 7 8 16 16
10 9 8 8 7 6 6 5 6 5 6 7 7 5 3 2 3 7 7 6 8 7 8 9 7 6 7 6 6 9 10 7 9 13 7 4 8 5 2 4 4 5 6 6 7 8 9 10 12 11 13 11 8 12 14 13 9 10 5 10 8 6 7 13 15 14 13 15 14 6 14 17 18 19 19 20 19 17 15 8 8 7 6 2 11 21 19
11 9 8 8 8 9 8 9 9 9 7 8 4 5 0 3 4 6 2 5 6 9 8 10 8 11 8 8 9 9 8 8 7 9 9 3 3 4 3 8 9 8 8 5 4 5 8 8 6 5 13 11 12 9 14 13 7 0 8 10 8 7 5 10 14 15 12 7 9 13 10 10 17 21 18 18 20 17 17 9 9 8 5 3 17 20 20
11 10 9 9 10 9 8 8 8 8 7 5 4 4 1 1 5 6 6 3 3 10 6 9 10 10 9 6 8 9 9 9 9 4 3 1 3 3 3 7 9 9 10 7 5 5 4 4 9 1 8 11 10 8 9 12 7 11 9 10 6 4 8 6 7 6 10 9 8 8 16 11 12 17 16 16 15 18 16 10 8 4 8 15 16 10 14
11 12 12 11 10 9 9 10 9 8 7 5 5 4 2 3 4 3 7 8 6 6 7 9 10 9 8 6 7 8 8 9 8 8 3 3 5 4 7 7 8 9 9 9 8 7 8 7 2 7 5 7 5 7 10 8 9 10 11 9 10 9 1 7 7 10 11 9 8 10 9 8 10 12 15 17 13 13 16 3 16 17 13 18 20 19 12
12 12 11 11 11 11 11 11 12 11 10 4 4 4 3 3 2 3 6 5 4 6 10 10 8 7 7 7 7 8 10 7 6 3 0 5 5 4 7 6 8 9 9 9 9 7 9 11 9 4 6 6 6 2 3 7 11 15 11 11 9 10 4 1 3 6 5 5 10 7 7 7 8 13 11 10 12 3 9 5 7 16 14 18 20 15 10
12 12 12 12 12 12 12 12 13 12 10 5 5 4 4 3 2 3 3 3 5 8 8 7 6 6 7 7 8 8 5 4 3 4 4 5 4 5 7 9 8 9 10 11 10 8 8 8 4 7 6 11 11 7 3 5 5 8 12 8 5 7 6 4 3 5 3 5 5 7 3 7 3 4 10 6 16 13 9 11 12 18 20 15 9 8 12
12 13 13 13 13 12 13 13 13 12 8 5 4 5 5 6 6 6 2 3 5 6 7 6 8 2 4 9 8 1 3 4 2 3 0 3 4 6 7 9 8 7 9 10 8 5 5 4 5 8 9 12 7 5 5 7 6 8 7 8 5 8 8 4 4 3 2 7 8 3 3 9 5 4 12 5 10 14 15 9 7 7 7 9 11 13 14
13 13 13 13 13 13 14 14 13 12 10 7 6 6 4 5 6 3 4 4 3 7 9 5 3 2 5 7 6 2 4 4 10 1 4 3 5 7 10 9 4 4 6 10 5 7 2 3 5 3 8 7 3 2 3 6 8 14 12 10 10 9 5 2 5 1 2 5 8 4 6 3 4 5 11 2 12 17 18 13 12 14 17 24 22 18 15
13 13 14 15 14 15 15 14 14 13 12 9 7 7 6 6 6 6 5 6 3 5 7 6 9 4 4 12 5 3 4 5 7 3 3 4 6 9 6 6 6 4 4 7 2 4 7 4 4 3 5 6 10 8 4 7 8 17 16 9 7 6 6 4 2 1 3 2 2 5 1 3 2 3 13 3 11 12 19 14 13 12 11 18 23 20 15
12 13 13 14 14 14 15 15 15 13 14 12 7 7 7 6 6 6 6 4 4 6 9 8 8 11 10 7 1 9 1 5 5 1 4 3 9 7 4 4 4 7 6 3 4 4 5 3 3 2 4 5 5 4 3 8 8 13 20 15 10 10 9 4 4 5 3 2 2 1 3 2 4 7 5 3 4 6 7 8 6 7 10 15 20 15 13
12 12 12 13 13 13 13 13 14 14 14 14 7 8 6 5 4 4 4 4 4 8 6 1 2 12 7 1 2 8 5 5 5 2 3 7 6 2 3 0 6 6 8 2 3 4 4 2 3 2 3 3 1 1 4 2 1 10 10 9 3 9 6 6 5 1 0 4 3 0 2 5 3 4 5 4 2 9 8 11 6 7 10 13 18 18 17
12 12 12 12 12 13 13 13 13 13 13 15 7 7 6 4 4 4 4 4 4 4 2 2 5 8 5 6 12 4 1 2 2 1 3 2 2 2 3 6 7 2 6 4 2 3 2 2 2 2 3 5 3 3 1 3 2 5 9 10 11 4 4 5 6 2 2 3 3 3 3 0 2 4 7 4 4 7 7 5 5 9 12 12 16 19 18
12 12 12 12 12 12 13 12 12 13 12 13 8 6 4 3 3 4 5 3 4 6 12 9 7 7 4 2 7 3 3 1 3 1 1 1 3 1 2 6 6 3 3 5 4 3 3 3 2 3 2 2 3 1 6 7 6 1 6 9 7 4 2 2 4 4 1 2 3 2 0 1 2 2 5 4 8 2 2 4 5 12 14 15 16 18 19
12 13 12 12 12 12 12 12 12 12 12 13 9 6 6 4 5 6 5 5 4 6 5 9 8 6 3 1 4 2 1 2 1 7 5 6 5 4 3 2 1 2 3 1 2 3 1 1 2 2 2 3 2 4 3 5 6 4 5 5 3 3 1 2 4 5 9 8 1 2 2 1 2 4 4 5 2 4 3 4 5 14 15 15 15 17 16
14 13 13 13 13 12 12 12 11 12 12 13 9 7 4 4 4 4 4 4 5 4 10 7 6 3 8 6 9 1 2 1 4 3 2 2 3 10 8 5 1 2 3 2 3 1 1 1 1 2 1 1 2 0 2 2 3 6 4 4 3 2 2 2 3 1 5 5 6 2 2 0 6 2 4 5 2 3 3 4 10 15 16 15 15 16 14
14 14 14 13 13 13 13 12 12 12 12 12 9 6 8 8 6 4 5 5 5 7 9 4 5 7 6 8 7 7 5 5 5 3 4 2 4 6 7 1 5 2 1 2 1 3 1 1 1 1 1 1 0 3 2 4 3 6 6 1 1 1 1 2 2 1 3 2 5 4 3 1 3 5 4 1 3 2 7 12 13 13 15 16 14 14 13
15 14 15 15 14 13 12 12 12 12 12 11 9 7 7 4 4 4 3 5 5 6 2 2 5 7 8 7 7 7 7 7 4 3 5 5 7 3 1 1 4 4 3 2 1 2 3 3 4 3 4 4 3 3 0 2 3 6 8 4 3 1 0 1 1 3 1 2 2 2 3 4 1 4 2 6 7 8 11 11 13 12 12 13 10 11 12
15 15 15 15 14 14 14 13 13 12 11 10 10 7 7 4 3 2 3 3 5 6 5 11 12 12 10 9 6 3 5 4 6 4 4 5 8 5 4 3 7 2 3 5 1 3 1 1 3 3 3 4 4 5 9 5 4 2 2 3 2 4 4 1 2 3 1 2 3 2 2 6 6 7 10 10 10 11 13 12 12 14 11 12 12 14 14
15 15 15 16 16 16 15 15 14 13 12 11 8 5 7 7 6 4 2 5 6 9 9 11 11 11 12 15 7 3 2 2 3 2 3 5 4 7 4 7 6 5 4 4 5 5 6 2 3 0 6 3 2 6 10 3 5 9 4 4 8 9 14 12 11 7 11 10 7 4 5 6 8 7 9 11 12 12 13 13 12 11 12 11 12 14 15
15 15 16 16 17 17 17 17 16 15 14 12 9 7 7 6 7 6 5 5 3 4 6 8 7 2 5 6 5 3 5 3 4 2 1 2 5 4 6 7 6 4 6 4 2 6 5 2 3 6 4 4 7 3 4 5 2 10 9 7 7 12 12 5 8 14 5 4 4 6 7 7 8 10 10 10 10 10 9 10 10 11 12 14 14 14 15
16 16 16 17 18 18 18 18 17 17 15 14 11 8 9 8 8 6 5 3 2 2 3 3 3 7 5 5 4 6 5 4 2 4 3 0 3 5 6 6 5 5 6 6 4 5 3 3 1 2 3 4 6 3 12 4 5 2 5 5 6 8 11 11 9 6 3 7 8 7 6 7 9 9 9 10 11 11 10 10 11 13 14 15 16 16 16
17 17 17 18 18 18 18 18 18 17 16 16 12 7 7 7 6 8 7 7 8 5 3 2 5 4 5 6 9 8 7 7 7 6 5 2 3 2 3 4 2 1 4 5 6 4 3 0 4 5 4 4 6 4 6 8 9 11 10 8 7 4 5 4 7 9 12 12 9 8 7 9 9 10 9 9 10 12 13 14 15 16 17 17 15 13 14
17 18 17 18 18 18 18 18 18 17 17 16 10 8 8 9 9 9 7 5 8 3 5 1 1 5 6 10 7 7 8 7 6 6 5 7 6 3 0 2 4 2 4 1 3 4 1 2 5 6 6 4 3 5 1 6 7 6 7 11 8 6 10 12 12 10 8 8 11 14 10 7 8 10 12 13 14 14 16 16 17 16 16 16 16 15 14
18 18 18 18 19 18 18 17 16 15 14 14 11 10 10 10 10 10 8 6 6 3 4 5 2 4 5 9 8 7 8 8 7 6 6 6 6 5 3 1 3 5 3 1 2 0 5 4 7 2 2 5 5 4 5 9 9 9 11 10 10 10 8 2 0 2 6 12 18 9 10 13 9 11 12 13 13 15 16 16 16 15 15 16 18 18 17
18 19 19 19 19 20 19 18 17 16 15 13 8 8 10 12 11 9 8 6 5 7 5 6 2 4 3 6 7 6 7 7 7 7 7 7 6 5 4 4 5 5 5 2 2 4 4 4 4 4 3 4 5 2 3 3 6 8 7 8 9 11 11 8 12 17 15 16 12 11 13 13 13 13 13 13 13 14 15 15 14 15 16 15 16 16 17
18 19 20 20 20 20 20 18 17 15 12 7 5 5 5 4 6 6 5 6 5 5 3 5 2 1 2 4 5 6 7 7 7 8 9 7 7 6 6 5 4 5 5 3 3 3 3 3 3 4 4 4 4 0 2 7 9 8 4 7 12 14 14 14 11 11 11 11 11 13 15 15 13 13 12 13 13 13 13 15 15 15 15 15 15 15 14
19 20 20 21 20 20 19 17 14 13 11 6 4 2 3 1 4 1 4 4 4 4 3 5 2 1 2 2 2 6 3 5 7 7 7 6 7 7 6 4 5 2 2 3 4 5 1 3 1 2 1 7 4 3 1 9 8 7 7 9 9 12 12 11 12 14 14 14 15 15 15 14 11 13 13 13 14 13 13 13 14 13 15 15 15 15 14
20 20 20 21 20 19 18 15 11 10 7 7 5 3 3 3 4 7 8 5 3 6 3 5 1 0 2 2 2 3 5 8 2 7 5 4 6 4 7 5 5 6 5 3 2 2 3 3 3 4 4 5 5 4 8 9 8 8 8 10 10 10 9 10 10 11 12 13 17 16 14 12 13 13 13 13 14 14 15 15 15 14 14 14 14 14 14
20 21 21 20 20 19 18 16 9 5 6 9 14 13 14 15 13 8 5 5 5 5 5 3 2 1 1 4 2 2 4 5 6 3 6 3 5 3 4 1 4 4 2 1 2 2 1 2 1 3 7 7 3 3 8 8 9 9 9 9 10 9 8 8 9 9 10 10 10 13 14 13 12 14 14 14 15 15 16 16 16 14 14 15 15 15 14
22 21 21 20 20 19 18 15 16 10 9 4 4 4 2 2 5 9 6 4 4 5 4 2 1 1 1 4 3 4 6 6 4 6 3 4 3 1 2 3 3 2 3 2 2 2 1 0 3 2 3 6 5 3 5 6 7 9 8 7 7 7 7 7 8 9 8 7 9 12 13 13 14 14 14 15 16 16 15 14 15 16 16 15 15 15 16
22 22 20 20 20 18 22 15 6 3 4 5 1 4 2 3 5 4 4 3 5 3 1 1 2 2 1 2 2 4 6 7 5 4 3 3 4 4 2 1 2 1 2 5 3 3 3 4 6 1 5 6 4 3 3 6 7 7 6 6 6 6 8 9 8 8 10 11 12 13 14 14 16 16 15 15 16 15 15 15 15 16 16 15 15 16 15
23 20 19 18 20 15 7 5 4 3 3 2 3 2 3 8 6 6 6 5 4 5 5 1 2 2 4 2 3 2 4 1 2 2 4 1 3 5 3 1 2 3 3 2 4 3 3 5 2 4 5 4 5 4 4 5 6 6 5 6 6 6 7 10 12 12 12 13 15 14 15 14 16 16 14 15 15 15 16 16 15 14 15 15 15 14 13
22 19 20 19 10 3 3 2 3 3 3 4 8 11 13 6 5 5 6 6 5 5 5 4 6 4 3 2 1 2 3 1 1 2 3 2 3 1 1 1 4 1 2 2 3 3 4 5 5 6 6 6 5 5 5 3 5 6 6 6 6 6 7 9 12 14 15 15 16 14 14 16 15 13 14 14 14 14 15 15 15 15 15 15 14 13 14
22 17 6 4 4 3 2 2 3 4 5 9 6 4 3 3 3 2 3 3 4 4 3 6 2 2 1 2 2 3 4 1 1 1 2 1 1 2 1 1 2 1 0 2 4 6 4 2 4 5 4 5 6 6 6 4 5 5 5 5 5 5 8 11 12 13 15 15 14 14 14 15 14 13 14 14 14 13 12 12 13 12 13 12 12 13 13
14 4 4 3 3 2 2 3 4 8 8 5 3 3 2 2 1 1 1 0 1 3 1 5 0 4 2 6 3 3 3 3 5 1 3 2 2 2 0 1 2 2 2 1 3 4 2 4 3 4 4 3 4 4 4 4 4 4 4 4 6 7 9 10 11 13 12 12 13 14 13 14 15 13 11 12 11 10 12 13 14 13 12 13 14 12 13
4 4 2 2 1 4 7 7 11 10 5 4 2 2 3 2 2 2 1 2 3 1 1 1 4 3 5 4 3 4 2 4 5 4 3 3 2 2 1 1 2 1 1 1 3 2 2 1 3 2 4 5 4 5 4 3 4 3 3 5 7 8 9 10 10 9 11 13 13 13 13 14 15 16 15 13 12 13 12 11 10 10 12 14 13 11 9
7 6 4 2 4 5 7 10 9 6 4 3 3 2 2 2 2 2 2 2 3 0 1 4 3 2 2 5 1 3 2 3 1 2 2 3 1 2 0 2 0 0 0 0 2 2 1 1 1 2 4 5 6 6 6 5 5 5 4 6 8 8 9 9 9 11 13 12 12 11 11 12 12 13 13 14 14 13 13 13 11 8 8 8 4 4 10
7 6 6 9 9 9 8 4 3 3 2 1 3 3 2 2 1 2 2 3 2 2 5 4 3 3 5 3 6 3 3 2 1 1 1 2 0 1 1 0 1 1 0 1 0 4 3 2 2 4 4 7 8 8 8 8 7 8 8 8 8 8 10 11 13 13 13 13 13 14 14 14 11 8 8 8 11 11 10 10 10 11 11 8 7 9 9
19 14 7 6 4 3 2 3 3 2 3 1 1 2 1 2 2 3 3 3 2 3 3 1 4 4 5 2 4 3 2 1 2 1 1 2 1 1 1 1 1 0 1 0 2 1 3 2 2 7 8 8 8 9 9 9 9 9 9 9 9 9 11 13 13 13 13 14 15 13 12 13 12 11 11 11 12 13 13 11 11 10 9 9 10 9 9
9 5 4 3 2 3 2 4 2 2 3 2 2 2 2 3 2 3 3 3 4 5 4 5 4 5 3 1 1 3 1 2 2 0 2 1 1 2 1 0 2 2 1 2 1 0 1 3 5 10 10 9 8 10 10 11 10 9 9 9 9 9 12 13 13 14 14 13 13 14 13 12 12 12 11 9 11 12 12 12 11 11 13 13 11 11 10
4 2 2 2 2 1 2 2 1 3 4 4 3 4 3 5 4 4 6 2 4 5 6 5 4 5 2 4 1 2 2 1 1 1 1 1 1 1 1 1 1 1 1 0 0 2 2 4 7 9 11 10 10 11 12 11 11 11 11 11 10 12 13 13 14 13 13 13 14 13 13 11 8 7 9 8 9 11 11 11 9 10 10 11 11 11 11
2 2 3 3 2 2 3 2 2 4 3 3 4 7 7 8 7 7 4 4 5 4 5 5 4 4 2 3 2 1 2 2 1 2 0 0 1 1 2 1 1 2 2 2 2 2 2 5 8 9 10 11 11 12 12 11 11 11 12 12 13 14 14 14 14 14 15 15 13 12 12 11 11 12 11 10 11 11 11 10 9 9 10 10 10 10 11
3 2 3 3 4 3 3 4 4 4 4 6 7 8 9 8 7 8 3 4 6 2 4 4 5 5 3 4 2 1 2 1 1 1 1 1 1 1 0 1 1 1 1 2 2 2 4 8 10 11 12 12 12 12 12 12 12 13 13 13 14 14 14 14 16 15 14 14 15 15 13 12 12 13 12 12 12 11 10 11 11 11 11 11 11 10 10
3 2 3 4 4 4 9 5 5 7 8 8 8 9 9 8 10 4 6 3 2 3 5 5 5 3 1 2 3 3 2 2 1 1 0 1 0 0 0 1 1 2 2 3 4 3 7 10 12 13 13 13 13 13 13 13 14 14 15 15 16 15 15 14 14 14 17 16 14 15 15 15 14 13 13 12 11 11 10 10 10 11 11 11 11 11 11
3 2 3 3 4 4 5 9 9 10 9 9 9 9 9 10 10 7 5 4 3 5 4 6 3 1 2 3 3 1 2 3 2 2 1 1 1 1 1 1 1 2 2 3 3 8 9 11 13 14 15 14 13 12 13 13 14 14 14 15 14 14 13 13 13 13 13 12 11 13 14 15 13 12 13 11 11 11 11 11 11 10 10 11 11 11 11
3 3 2 3 4 7 8 8 10 9 10 10 10 10 8 9 10 7 3 4 4 4 3 4 1 2 1 3 2 1 1 2 1 2 2 2 2 2 2 3 2 3 2 2 6 8 10 12 14 15 15 14 14 14 14 14 14 13 14 15 14 14 14 15 15 13 10 12 12 12 11 12 11 10 12 11 10 10 10 11 11 11 11 10 11 11 11
2 3 4 7 7 6 7 8 9 9 8 11 10 9 8 10 8 7 3 4 5 6 4 4 3 3 1 2 1 2 1 0 2 3 2 3 2 2 2 2 4 2 7 7 8 10 11 12 13 13 15 14 15 15 14 15 15 15 15 14 14 13 13 15 14 13 13 12 12 11 11 12 11 11 11 11 12 11 11 11 11 11 11 11 11 11 11
3 5 6 7 11 11 10 10 10 10 10 10 10 8 8 9 7 6 5 4 5 6 6 4 3 3 2 3 3 1 1 1 2 1 2 2 1 2 1 2 4 4 4 6 9 10 10 10 12 14 15 14 14 15 15 15 14 15 16 16 15 15 15 14 14 13 12 12 13 13 13 13 12 12 11 12 12 11 10 10 10 11 10 10 10 10 10
Wind_Direction
34 35 38 50 50 45 57 340 233 232 257 228 231 248 250 233 230 346 291 162 178 184 203 200 209 225 237 242 232 236 248 255 272 277 264 195 217 149 114 187 250 262 264 240 264 281 196 205 194 195 191 186 215 176 208 188 189 190 191 200 163 146 226 202 208 198 212 211 202 194 219 225 226 204 217 221 212 203 227 228 217 216 215 225 213 168 73
21 21 27 30 32 32 17 272 201 243 209 301 320 295 278 332 30 294 263 193 196 204 202 200 212 225 237 236 238 214 237 251 266 275 274 250 165 219 146 41 265 295 288 297 264 304 296 200 199 192 192 189 191 219 203 190 196 189 175 211 138 168 192 215 182 196 204 209 206 201 202 222 224 212 201 222 228 202 202 230 213 239 227 235 232 145 152
24 26 26 20 20 36 5 353 328 323 314 314 314 304 308 232 196 220 167 201 206 215 223 241 233 272 256 230 226 227 226 243 259 274 274 234 268 17 216 245 274 236 257 273 276 287 285 321 233 190 183 166 175 237 231 179 198 193 186 190 142 184 163 207 190 194 191 199 206 198 191 209 218 223 209 213 226 229 210 211 201 230 204 229 179 95 109
17 20 17 13 7 9 346 5 348 336 338 325 282 286 294 265 140 166 161 197 198 241 261 285 272 272 285 270 247 236 247 231 240 239 249 269 259 213 225 202 244 266 265 264 285 264 265 245 278 196 170 153 204 238 243 238 199 186 200 158 146 197 181 205 219 197 203 208 221 215 209 196 219 213 218 209 216 226 231 216 225 226 191 227 126 138 133
12 14 14 4 14 343 1 331 324 332 328 326 312 293 271 226 216 150 158 170 214 239 231 233 241 254 262 281 225 234 244 263 257 222 255 198 263 275 267 277 263 242 237 257 267 292 283 248 275 201 123 159 185 228 228 220 193 46 109 187 156 191 207 204 223 227 217 211 205 221 218 207 210 223 217 215 208 225 241 221 222 213 233 211 117 137 142
4 9 12 13 9 358 344 333 319 331 325 328 304 300 312 287 353 338 172 217 179 213 221 226 240 255 264 269 265 243 244 240 254 160 231 54 5 282 235 243 247 256 238 220 257 310 282 267 265 114 141 164 186 211 207 214 108 133 201 187 201 191 224 209 217 225 246 256 273 268 287 273 213 219 219 209 204 214 235 238 235 208 227 189 146 147 147
7 5 5 8 4 357 349 343 338 325 326 322 305 311 11 7 292 269 301 277 179 194 210 223 237 250 248 267 269 267 246 230 233 189 229 314 249 239 262 275 258 233 235 243 248 229 257 262 272 251 171 168 173 210 196 207 131 197 212 197 190 195 224 197 219 224 252 244 252 268 252 261 293 215 220 234 221 208 223 228 230 195 117 120 143 127 137
11 7 6 6 0 357 352 357 349 357 322 277 279 243 256 315 331 345 317 272 278 295 235 220 229 237 230 251 249 257 245 254 246 232 197 221 263 260 276 264 256 260 260 252 246 225 234 274 349 44 20 10 230 210 210 179 178 199 209 201 174 215 4 337 190 218 222 235 253 273 282 281 311 284 219 227 238 229 215 153 78 91 101 103 102 97 84
11 10 5 3 2 355 356 353 0 354 348 274 258 306 257 231 209 275 315 285 278 285 250 222 224 230 216 230 238 245 247 237 287 297 304 254 258 260 264 293 298 284 271 260 263 272 239 227 272 227 180 187 192 176 227 237 185 199 204 212 165 193 151 81 206 215 214 219 241 248 257 293 309 317 264 243 237 207 32 90 133 119 120 112 106 108 113
11 8 7 8 4 2 354 357 357 356 325 286 304 303 287 308 268 230 268 298 249 248 216 220 219 230 218 227 223 239 227 254 219 276 295 261 264 278 286 290 285 277 274 265 257 273 316 290 285 355 314 228 187 203 212 227 237 190 205 174 173 189 136 172 196 218 197 219 194 232 76 14 308 40 339 17 87 107 93 77 111 125 127 122 133 144 145
8 7 3 360 0 358 358 356 354 356 345 332 325 299 330 14 334 331 303 266 266 250 233 204 230 297 311 203 243 256 359 290 233 225 280 340 329 334 292 280 281 281 276 264 280 313 260 251 288 20 253 191 163 183 90 24 315 287 227 182 172 198 171 176 173 194 157 89 88 83 124 221 207 54 300 341 92 100 89 62 46 69 95 108 110 112 118
4 2 359 357 355 354 354 353 352 352 349 321 310 289 327 351 323 316 302 291 306 9 315 227 222 13 261 290 230 189 92 358 295 246 267 342 342 315 301 279 278 266 271 296 331 296 242 284 282 164 47 74 119 89 47 127 272 275 250 207 168 197 169 172 135 196 120 109 104 98 210 238 44 305 291 41 91 94 88 85 67 77 92 101 105 110 122
360 358 358 355 351 350 350 351 350 350 351 335 313 303 332 345 319 321 303 308 321 351 327 319 346 316 61 298 246 73 99 248 288 330 333 335 297 296 305 296 248 297 313 287 275 183 163 155 179 88 75 61 34 30 12 286 249 237 238 175 170 168 182 149 125 179 119 168 134 183 164 39 282 34 297 92 99 91 87 66 60 75 96 116 122 130 135
355 354 353 351 351 348 348 348 344 350 348 343 311 306 314 330 340 335 351 347 321 316 323 324 356 338 287 250 171 91 255 278 291 265 285 270 273 292 270 239 215 273 297 252 147 106 87 60 95 136 29 33 30 24 355 313 309 258 208 184 191 190 200 183 162 183 191 104 117 345 344 189 138 151 257 143 160 114 115 110 66 87 108 126 125 116 114
348 352 348 348 347 343 345 345 344 349 347 343 312 302 311 332 333 331 322 307 307 304 286 312 0 272 274 225 110 48 345 337 303 196 268 278 336 329 283 134 256 295 349 349 77 35 52 76 91 83 35 53 120 241 358 328 204 39 42 25 203 193 208 170 171 104 204 145 100 145 205 205 194 189 181 27 35 76 102 103 95 98 109 123 129 123 126
352 349 346 343 344 342 341 344 345 347 346 344 318 312 316 330 318 294 320 304 310 294 25 27 294 291 0 20 76 83 350 261 156 56 338 300 24 272 273 229 235 236 27 346 89 70 38 63 126 158 161 200 146 97 299 235 334 17 26 34 1 35 23 230 182 123 112 135 149 192 201 352 2 168 158 151 89 116 108 97 131 151 131 139 135 136 140
349 348 345 342 341 341 337 341 342 346 347 344 330 317 308 325 303 309 311 292 255 276 283 335 348 355 33 73 102 89 242 357 350 330 310 297 169 194 187 220 221 55 19 62 353 86 180 161 218 161 143 265 173 240 185 171 156 152 70 33 326 226 167 156 168 113 81 99 186 176 335 56 188 187 113 86 20 354 288 186 190 165 159 150 149 145 147
346 345 345 342 341 337 336 339 340 340 339 340 322 311 303 314 299 298 271 267 297 291 345 8 22 36 355 309 351 311 321 34 223 245 265 221 190 189 183 191 177 150 75 35 109 94 6 89 163 167 157 359 63 224 206 153 138 164 126 156 189 195 151 141 204 161 167 168 90 105 117 356 119 138 150 73 25 358 194 210 131 153 154 156 151 152 153
348 347 344 343 338 336 334 336 334 335 339 341 331 295 273 307 292 267 288 288 289 288 314 358 352 172 217 195 202 194 106 174 277 333 244 230 190 170 174 174 202 128 177 234 108 69 96 88 62 51 90 93 338 246 75 206 135 84 116 150 157 101 66 76 29 211 207 191 142 123 80 2 310 340 55 72 183 200 185 75 128 136 147 149 151 151 153
344 343 342 341 337 334 333 330 331 331 334 341 336 313 299 291 280 272 285 304 293 298 296 0 317 335 16 23 8 22 14 53 5 33 358 331 277 174 155 156 246 190 236 140 149 156 133 143 148 123 126 132 159 328 308 64 84 131 145 60 76 60 126 134 151 106 92 5 124 154 146 160 323 339 211 75 268 89 112 127 118 129 135 146 146 145 146
340 340 340 340 338 333 328 325 326 326 328 334 332 315 308 310 260 255 273 281 300 299 274 52 315 334 351 5 13 359 358 19 30 327 323 299 302 342 354 247 173 163 205 188 198 173 194 168 187 185 174 154 178 41 257 72 52 132 136 134 84 223 143 69 55 355 87 159 195 102 51 99 349 286 86 55 76 120 111 113 112 116 129 139 135 121 114
337 337 337 337 334 331 324 321 318 316 323 330 330 298 285 274 234 278 273 297 266 247 271 313 309 291 287 297 315 356 353 25 7 347 323 326 326 315 194 221 42 4 56 328 297 139 243 81 229 189 151 144 145 178 177 158 155 252 50 139 76 319 104 276 112 359 342 79 98 148 57 60 45 84 101 85 78 87 95 106 118 129 126 125 128 131 126
334 331 332 332 331 327 322 317 317 319 323 329 323 291 290 312 313 75 329 276 260 260 266 273 280 272 254 253 266 341 359 52 335 354 13 327 333 312 76 5 32 353 38 27 349 358 332 338 294 102 181 115 152 147 194 174 122 163 124 35 108 108 123 117 97 86 99 76 82 102 111 95 77 71 92 92 86 93 106 112 116 126 133 134 129 131 130
331 330 329 328 327 325 321 318 316 315 314 312 304 286 279 274 300 302 275 234 269 313 281 233 237 351 30 26 15 31 0 41 12 29 153 328 330 351 32 25 1 341 29 3 324 318 350 336 20 334 42 37 330 188 173 132 81 110 115 126 109 144 163 139 102 163 140 77 111 105 105 109 99 93 94 94 97 100 107 116 118 124 133 129 130 130 131
330 328 326 326 324 322 317 315 311 308 306 305 297 269 261 265 254 246 254 283 249 247 301 84 29 342 10 38 14 17 17 339 338 29 328 354 348 357 23 14 0 335 347 338 308 281 235 327 271 210 98 42 353 26 33 72 97 15 125 92 158 104 100 106 134 147 91 138 136 127 103 95 114 117 116 111 107 106 110 115 118 120 125 129 125 128 127
327 325 323 321 317 314 311 308 307 304 303 304 299 281 265 258 233 210 227 248 254 254 282 80 98 67 32 28 30 13 3 358 7 13 358 357 95 10 319 297 237 220 286 337 320 326 328 283 314 25 48 57 2 37 61 39 69 52 64 52 8 84 190 104 105 100 108 110 116 131 117 98 102 107 105 106 105 109 113 116 120 122 120 124 128 127 129
324 321 318 315 311 308 305 304 301 298 297 298 292 271 257 259 257 250 237 277 319 265 222 99 132 73 21 50 17 25 12 13 13 14 36 9 19 82 152 299 300 270 302 183 37 321 301 66 48 49 38 54 353 40 40 102 71 66 56 31 352 108 86 114 112 120 151 165 156 150 133 133 125 117 116 110 114 118 118 123 123 124 124 125 126 124 123
323 319 314 311 308 305 301 298 294 292 291 289 275 259 249 250 243 234 239 252 260 300 320 306 41 67 227 38 350 49 15 27 12 24 28 49 48 23 357 111 268 262 156 331 253 230 22 20 66 72 60 30 341 91 66 110 99 65 56 46 39 51 36 56 44 192 164 150 155 163 118 122 112 114 116 115 124 129 128 127 128 127 126 125 126 127 128
322 317 313 310 307 305 304 303 303 302 303 297 270 258 251 239 244 238 232 239 240 270 295 277 87 355 29 19 333 51 55 32 39 33 30 32 53 73 52 27 358 31 19 18 42 47 58 55 20 33 29 18 302 111 184 119 79 72 61 58 56 51 29 40 83 80 104 141 163 137 132 131 126 120 118 124 130 129 125 123 122 124 126 128 127 131 133
321 315 312 309 307 306 303 302 303 298 299 295 261 257 270 221 199 225 211 201 218 263 283 297 59 72 140 350 354 350 63 67 56 39 38 36 33 29 45 47 45 16 19 19 10 72 74 64 53 52 44 20 332 247 238 102 100 85 86 82 61 52 51 40 57 92 117 133 123 120 121 123 120 123 124 125 127 125 123 125 126 127 126 128 129 128 131
318 314 311 308 305 301 299 299 297 296 294 262 264 276 266 174 111 125 146 185 221 252 278 287 44 232 111 89 335 341 24 97 81 53 46 37 35 26 32 42 35 7 89 54 36 39 8 81 82 106 135 35 350 319 281 109 103 95 67 59 62 67 56 66 76 80 88 99 109 117 122 121 121 124 128 130 126 123 118 119 120 120 124 128 127 127 127
317 314 311 307 303 299 294 290 288 286 280 266 269 292 349 331 340 339 329 288 267 258 266 284 293 353 61 105 38 300 355 335 20 104 78 2 63 33 62 20 57 28 32 57 61 85 44 42 38 44 27 18 347 23 30 79 95 100 90 69 68 71 74 72 76 94 101 110 120 120 121 126 139 136 130 127 121 118 121 121 120 121 120 120 122 122 125
317 314 310 305 302 300 297 288 271 255 265 295 308 287 278 276 283 293 259 265 260 262 262 282 35 250 269 59 225 146 338 271 263 124 68 27 67 0 69 53 115 115 266 236 60 73 119 105 154 91 43 16 65 65 54 67 87 99 86 79 73 71 76 75 81 96 111 125 133 134 138 137 128 124 118 118 124 125 126 128 127 127 124 125 125 126 128
316 313 309 306 304 303 297 290 292 264 239 252 258 203 163 210 255 236 267 275 269 285 276 288 236 238 108 189 189 72 309 319 59 353 82 34 344 269 82 111 34 54 5 58 147 151 129 80 79 101 111 61 48 72 76 82 91 92 90 95 98 104 103 115 116 119 120 116 112 122 127 130 130 127 127 127 129 130 131 131 133 131 130 131 131 131 131
314 312 310 305 303 297 301 294 298 235 266 225 131 76 100 211 262 252 210 295 308 275 241 187 274 273 163 125 40 61 334 331 61 24 45 72 341 61 90 33 25 358 53 293 71 21 56 41 333 283 84 60 57 66 91 123 109 101 99 110 122 126 129 120 115 108 105 103 114 123 128 131 131 130 131 131 131 134 136 136 134 134 133 134 135 136 136
311 307 306 304 295 291 286 218 222 272 247 330 22 30 319 300 246 229 223 239 258 309 299 303 251 260 4 74 71 88 285 141 157 139 55 255 104 351 46 73 96 35 310 356 82 55 51 343 287 55 58 76 56 51 89 114 123 118 120 128 139 151 133 120 119 120 120 122 127 132 134 136 135 132 131 134 135 137 138 136 136 135 132 132 135 136 135
307 307 304 292 281 236 270 251 140 38 353 315 296 306 295 288 245 242 229 231 212 212 274 310 307 52 34 78 79 80 266 119 154 84 52 46 41 337 308 228 79 109 147 125 98 82 78 41 69 64 50 74 91 63 59 91 126 133 132 136 140 133 126 130 124 127 130 130 131 136 139 137 135 135 136 139 140 138 139 141 145 143 142 141 140 143 146
305 305 295 289 277 277 271 347 4 320 320 294 289 289 214 189 257 227 226 235 189 183 238 265 313 94 206 353 90 103 281 84 255 158 100 48 204 95 350 36 66 251 120 94 111 113 75 51 61 79 92 76 63 56 57 55 91 108 125 142 141 135 133 132 135 137 137 138 138 137 135 135 134 138 138 139 140 140 141 143 144 144 140 141 141 143 147
297 280 261 277 279 286 12 346 348 325 292 269 235 270 246 202 247 248 231 237 141 237 189 268 197 309 31 102 91 101 337 343 294 199 88 79 329 69 273 151 119 269 113 218 117 200 144 111 123 124 115 145 137 118 91 63 80 99 129 144 139 132 135 141 147 146 148 146 144 144 146 145 142 144 147 145 145 143 145 146 147 146 145 143 143 151 163
6 308 299 285 276 351 325 326 342 309 263 260 212 241 258 205 269 270 128 243 240 259 282 267 57 29 353 358 117 125 35 337 358 67 101 105 337 354 84 24 86 273 191 87 98 222 271 206 124 160 134 148 136 153 156 164 141 134 159 150 145 138 148 146 147 148 143 141 145 149 147 144 144 144 147 145 142 140 142 142 139 149 151 147 164 164 133
6 344 0 359 341 325 321 317 304 271 261 258 249 196 348 299 246 331 318 250 269 159 197 315 143 151 127 270 278 82 114 271 268 58 32 80 61 277 70 62 10 316 354 47 131 224 209 96 133 27 104 144 148 150 153 149 153 154 151 142 144 145 146 142 141 135 138 139 138 129 126 134 140 143 143 144 144 150 150 135 134 128 123 131 167 120 110
323 301 303 301 289 284 287 263 242 252 252 266 270 219 180 268 276 221 245 267 218 175 184 227 195 181 150 16 44 26 102 343 332 278 258 106 3 309 100 148 174 275 122 40 117 256 165 163 167 122 138 140 140 146 149 148 154 153 140 140 140 141 140 140 135 137 143 142 141 140 142 141 125 120 129 117 114 125 121 121 140 148 154 163 149 129 131
288 269 243 276 262 235 230 257 208 253 228 132 17 317 206 236 241 254 215 224 339 276 133 27 37 28 75 258 125 25 50 172 281 348 49 73 165 306 30 68 250 113 74 93 255 3 352 338 91 114 131 138 149 149 146 147 145 143 143 143 138 140 142 139 134 132 137 138 138 133 130 124 124 131 136 137 140 142 145 152 154 152 163 158 141 142 145
282 251 206 220 243 255 205 249 181 222 229 220 183 219 196 242 237 213 258 225 170 251 149 205 155 226 157 199 271 141 152 185 262 191 101 152 244 96 250 200 46 65 256 242 249 67 69 40 85 128 129 142 149 149 149 148 144 140 140 140 139 139 135 130 131 135 135 132 134 137 139 142 140 141 140 148 152 151 157 164 164 166 173 153 146 150 135
293 236 230 234 230 213 104 323 200 223 218 207 221 227 210 225 237 228 239 133 194 224 142 222 154 222 145 124 246 130 278 125 123 256 100 265 50 355 341 53 75 222 230 233 15 104 118 122 117 128 141 155 151 150 149 149 148 149 147 146 148 146 141 139 136 136 135 137 140 143 141 142 148 152 148 157 164 163 154 151 158 162 150 140 149 144 129
285 245 212 205 280 275 207 237 186 211 221 229 219 231 234 223 238 238 218 120 220 153 187 187 185 217 142 136 282 117 176 214 169 46 301 246 109 92 28 1 269 273 290 257 205 220 188 148 143 143 155 152 150 149 149 149 152 149 155 154 155 152 152 145 142 144 142 142 146 143 145 157 168 156 164 167 149 145 153 151 158 159 142 143 139 134 133
268 283 256 235 244 225 205 237 214 220 232 223 231 236 248 255 227 240 177 172 250 185 193 150 216 209 189 153 211 177 243 250 98 98 279 56 94 93 196 285 271 239 220 257 245 209 134 133 139 145 153 152 151 152 149 150 153 156 153 150 153 154 152 152 151 155 153 154 150 152 152 146 150 152 160 156 160 158 150 152 161 156 152 144 143 140 142
281 273 261 229 219 204 211 219 255 239 226 246 240 228 232 249 261 193 117 212 258 233 212 153 220 167 179 110 285 268 157 96 114 155 2 92 112 273 15 256 239 244 242 241 234 155 128 133 137 146 149 151 155 155 155 156 155 150 149 153 154 157 160 159 156 157 161 163 158 155 151 157 164 162 157 158 150 142 156 158 148 144 140 140 146 148 152
295 303 259 238 230 220 225 217 222 241 247 229 249 255 239 228 248 240 171 167 236 259 201 189 207 156 218 130 237 179 140 139 196 156 163 204 152 185 219 243 235 253 206 270 58 110 127 131 136 140 144 151 157 158 155 156 155 151 157 159 156 158 160 156 157 164 144 139 157 151 155 162 160 154 143 151 144 152 154 145 141 139 142 146 147 150 155
248 224 229 263 253 241 239 225 224 232 232 247 228 230 238 244 245 244 180 166 177 246 199 224 93 235 169 139 222 184 223 189 201 138 217 203 204 221 231 266 231 243 210 145 114 125 125 132 135 142 148 154 158 159 158 157 154 155 160 162 163 164 164 156 160 185 177 163 162 169 157 124 139 147 155 158 149 156 145 145 142 144 148 150 151 155 153
234 267 246 244 245 231 212 231 222 224 230 241 237 218 222 245 239 234 189 175 169 218 192 211 164 237 155 180 238 196 236 142 159 203 212 223 195 227 229 232 231 252 69 78 111 126 133 138 143 143 148 155 160 160 160 157 159 159 161 163 164 163 160 157 165 174 164 158 147 144 158 161 164 160 162 153 153 155 150 143 147 149 152 153 156 155 151
227 225 233 231 239 249 238 233 230 229 225 232 233 220 217 236 225 232 141 205 200 224 209 199 192 208 206 201 205 241 99 240 259 236 222 247 155 233 221 288 28 64 116 127 120 127 135 145 146 148 152 155 161 160 159 157 163 162 164 165 166 166 164 162 168 160 155 161 161 175 172 156 163 159 160 152 154 159 154 151 152 151 155 156 159 158 156